TimeEST,TemperatureF,Dew PointF,Humidity,Sea Level PressureIn,VisibilityMPH,Wind Direction,Wind SpeedMPH,Gust SpeedMPH,PrecipitationIn,Events,Conditions,WindDirDegrees,DateUTC
12:54 AM,43.0,39.9,89,30.37,5.0,Calm,Calm,-,N/A,,Clear,0,2013-01-09 05:54:00
1:54 AM,42.1,41.0,96,30.37,5.0,Calm,Calm,-,N/A,,Clear,0,2013-01-09 06:54:00
2:54 AM,41.0,39.9,96,30.37,5.0,Calm,Calm,-,N/A,,Clear,0,2013-01-09 07:54:00
3:54 AM,41.0,39.9,96,30.37,4.0,ESE,3.5,-,N/A,,Clear,110,2013-01-09 08:54:00
4:54 AM,43.0,42.1,97,30.37,3.0,Calm,Calm,-,N/A,,Scattered Clouds,0,2013-01-09 09:54:00
5:54 AM,43.0,42.1,97,30.38,3.0,North,3.5,-,N/A,,Mostly Cloudy,360,2013-01-09 10:54:00
6:54 AM,45.0,43.0,93,30.40,5.0,North,3.5,-,N/A,,Overcast,10,2013-01-09 11:54:00
7:54 AM,46.0,44.1,93,30.41,4.0,Calm,Calm,-,N/A,,Overcast,0,2013-01-09 12:54:00
8:54 AM,48.9,44.1,83,30.42,5.0,NE,3.5,-,N/A,,Haze,50,2013-01-09 13:54:00
9:54 AM,51.1,46.0,83,30.43,6.0,East,3.5,-,N/A,,Haze,80,2013-01-09 14:54:00
11:54 AM,64.0,52.0,65,30.40,10.0,NNW,4.6,-,N/A,,Clear,340,2013-01-09 16:54:00
12:54 PM,68.0,54.0,61,30.38,10.0,Calm,Calm,-,N/A,,Clear,0,2013-01-09 17:54:00
1:54 PM,69.1,54.0,58,30.36,10.0,Calm,Calm,-,N/A,,Clear,0,2013-01-09 18:54:00
2:54 PM,72.0,51.1,48,30.37,10.0,North,4.6,-,N/A,,Clear,350,2013-01-09 19:54:00
3:54 PM,69.1,52.0,54,30.37,10.0,Calm,Calm,-,N/A,,Clear,0,2013-01-09 20:54:00
4:54 PM,64.9,55.0,70,30.37,10.0,Calm,Calm,-,N/A,,Clear,0,2013-01-09 21:54:00
5:54 PM,64.0,55.0,73,30.37,10.0,Calm,Calm,-,N/A,,Clear,0,2013-01-09 22:54:00
6:54 PM,60.1,55.0,83,30.38,10.0,Calm,Calm,-,N/A,,Clear,0,2013-01-09 23:54:00
7:54 PM,57.0,54.0,89,30.39,10.0,Calm,Calm,-,N/A,,Clear,0,2013-01-10 00:54:00
8:54 PM,55.9,54.0,93,30.38,10.0,Calm,Calm,-,N/A,,Clear,0,2013-01-10 01:54:00
9:54 PM,55.0,52.0,89,30.39,10.0,North,3.5,-,N/A,,Clear,10,2013-01-10 02:54:00
10:54 PM,55.0,53.1,93,30.41,9.0,Calm,Calm,-,N/A,,Clear,0,2013-01-10 03:54:00
11:54 PM,53.1,52.0,96,30.42,9.0,NW,3.5,-,N/A,,Clear,320,2013-01-10 04:54:00